Estherville, IA

10:46 AM CDT on October 19, 2017 (GMT -0500)
Estherville Municipal

Weather History for KEST - March, 2013

Change the Weather History Date:

Thursday, March 14, 2013

  Actual Average Record
Temperature  
Mean Temperature 34 °F 32 °F  
Max Temperature 44 °F 40 °F 72 °F (2012)
Min Temperature 23 °F 23 °F -10 °F (1960)
Degree Days  
Heating Degree Days 31 33  
Month to date heating degree days 571 508  
Since 1 July heating degree days 6210 6423  
Cooling Degree Days 0 0  
Month to date cooling degree days 0 0  
Year to date cooling degree days 0 0  
Moisture  
Dew Point 28 °F    
Average Humidity 77    
Maximum Humidity 89    
Minimum Humidity 65    
Precipitation  
Precipitation 0.00 in 0.06 in 1.29 in (1990)
Month to date precipitation 1.04 0.46  
Sea Level Pressure  
Sea Level Pressure 30.11 in    
Wind  
Wind Speed 8 mph (South)    
Max Wind Speed 17 mph    
Max Gust Speed 21 mph    
Visibility 8 miles    
Events      
T = Trace of Precipitation, MM = Missing Value Source: NWS Daily Summary

Daily Weather History Graph

Daily Weather History Graph

Search for Another Location

Airport or City:

Trip Planner

Search our weather history database for the weather conditions in past years. The results will help you decide how hot, cold, wet, or windy it might be!

Date:

Astronomy

Mar. 14, 2013 Rise Set
Actual Time 7:32 AM CDT 7:24 PM CDT
Civil Twilight 7:03 AM CDT 7:52 PM CDT
Nautical Twilight 6:30 AM CDT 8:26 PM CDT
Astronomical Twilight 5:57 AM CDT 8:59 PM CDT
Moon 8:40 AM CDT (3/14) 10:48 PM CDT (3/14)
Length of Visible Light 12h 48m
Length of Day
11h 52m
Waxing Crescent, 9% of the Moon is Illuminated
Mar 14
Waxing Crescent
Mar 19
First Quarter
Mar 27
Full
Apr 2
Last Quarter
Apr 10
New

Hourly Weather History & Observations

Time (CDT) Temp. Windchill Dew Point Humidity Pressure Visibility Wind Dir Wind Speed Gust Speed Precip Events Conditions
12:52 AM 24.1 °F 11.5 °F 19.9 °F 84% 30.23 in 9.0 mi South 15.0 mph - N/A   Overcast
1:52 AM 23.0 °F 10.6 °F 19.0 °F 85% 30.19 in 9.0 mi South 13.8 mph - N/A   Mostly Cloudy
2:52 AM 24.1 °F 11.0 °F 19.9 °F 84% 30.16 in 10.0 mi South 16.1 mph - N/A   Overcast
4:52 AM 27.0 °F 16.1 °F 21.9 °F 81% 30.11 in 10.0 mi SSE 12.7 mph - N/A   Overcast
5:52 AM 27.0 °F 14.3 °F 21.9 °F 81% 30.08 in 9.0 mi SSE 17.3 mph - N/A   Overcast
6:52 AM 27.0 °F 18.7 °F 23.0 °F 85% 30.10 in 9.0 mi East 8.1 mph - N/A   Overcast
7:52 AM 26.1 °F 16.2 °F 21.9 °F 84% 30.09 in 7.0 mi SSE 10.4 mph - N/A   Clear
9:52 AM 28.9 °F 19.8 °F 24.1 °F 82% 30.12 in 8.0 mi South 10.4 mph - N/A   Clear
10:52 AM 32.0 °F 26.4 °F 26.1 °F 79% 30.11 in 9.0 mi South 5.8 mph - N/A   Clear
11:52 AM 36.0 °F 33.3 °F 28.0 °F 73% 30.09 in 10.0 mi West 3.5 mph - N/A   Clear
12:52 PM 39.0 °F 34.8 °F 30.0 °F 70% 30.11 in 10.0 mi NW 5.8 mph - N/A   Clear
1:52 PM 42.1 °F 36.6 °F 32.0 °F 67% 30.11 in 10.0 mi NNW 9.2 mph - N/A   Clear
2:52 PM 43.0 °F 38.2 °F 34.0 °F 71% 30.10 in 10.0 mi North 8.1 mph - N/A   Clear
3:52 PM 44.1 °F 40.8 °F 34.0 °F 68% 30.10 in 9.0 mi North 5.8 mph - N/A   Clear
4:52 PM 43.0 °F 39.5 °F 35.1 °F 74% 30.12 in 9.0 mi North 5.8 mph - N/A   Clear
5:52 PM 42.1 °F - 34.0 °F 73% 30.12 in 8.0 mi Calm Calm - N/A   Clear
6:52 PM 39.9 °F - 36.0 °F 86% 30.13 in 6.0 mi Calm Calm - N/A   Clear
7:52 PM 34.0 °F 28.8 °F 30.9 °F 89% 30.12 in 6.0 mi SSE 5.8 mph - N/A   Clear
8:52 PM 34.0 °F 28.8 °F 30.9 °F 89% 30.09 in 5.0 mi South 5.8 mph - N/A   Clear
9:52 PM 34.0 °F 28.8 °F 30.9 °F 89% 30.08 in 6.0 mi South 5.8 mph - N/A   Clear
10:52 PM 33.1 °F 26.9 °F 30.0 °F 89% 30.07 in 5.0 mi South 6.9 mph - N/A   Clear
11:52 PM 33.1 °F 26.9 °F 30.9 °F 92% 30.04 in 4.0 mi SSW 6.9 mph - N/A   Clear